FW5442 Weather Reports


time (UTC)temp
C
wind
direction
speed
KPH
gust
KPH
rain 1hr
cm
rain 24hr
cm
rain mn
cm
humidity
%
barometer
mb
20260504212556 25 222 32.2 45.1 0.00 0.00 0.00 41 1010.7
20260504212058 25 245 33.8 51.5 0.00 0.00 0.00 42 1010.7
20260504211605 25 234 33.8 56.3 0.00 0.00 0.00 40 1010.7
20260504211056 25 219 38.6 56.3 0.00 0.00 0.00 41 1010.7
20260504210556 25 229 33.8 54.7 0.00 0.00 0.00 42 1010.8
20260504210058 25 229 30.6 51.5 0.00 0.00 0.00 41 1010.6
20260504205556 25 231 25.7 54.7 0.00 0.00 0.00 40 1010.8
20260504205056 25 183 29.0 54.7 0.00 0.00 0.00 39 1010.8
20260504204602 25 176 24.1 46.7 0.00 0.00 0.00 40 1010.9
20260504204056 25 236 30.6 46.7 0.00 0.00 0.00 40 1011.1
20260504203558 25 214 27.4 53.1 0.00 0.00 0.00 40 1011.1
20260504203106 25 167 25.7 53.1 0.00 0.00 0.00 41 1011.1
20260504202556 25 224 27.4 46.7 0.00 0.00 0.00 42 1011.2
20260504202056 25 206 33.8 46.7 0.00 0.00 0.00 39 1011.3
20260504201600 25 186 30.6 43.5 0.00 0.00 0.00 41 1011.6
20260504201059 25 232 27.4 43.5 0.00 0.00 0.00 41 1011.7
20260504200552 25 229 29.0 41.8 0.00 0.00 0.00 40 1011.6
20260504200056 25 230 24.1 43.5 0.00 0.00 0.00 41 1011.6
20260504195551 25 236 30.6 48.3 0.00 0.00 0.00 41 1011.9
20260504195052 25 224 30.6 53.1 0.00 0.00 0.00 42 1012.1
20260504194553 25 229 22.5 53.1 0.00 0.00 0.00 42 1012.0
20260504194052 25 226 32.2 53.1 0.00 0.00 0.00 41 1012.2
20260504193552 25 216 25.7 41.8 0.00 0.00 0.00 42 1012.2
20260504193054 25 164 29.0 43.5 0.00 0.00 0.00 41 1012.4
20260504192551 25 189 22.5 48.3 0.00 0.00 0.00 43 1012.4
20260504192054 25 209 32.2 48.3 0.00 0.00 0.00 41 1012.8
20260504191604 25 197 35.4 48.3 0.00 0.00 0.00 42 1012.7
20260504191051 25 207 22.5 48.3 0.00 0.00 0.00 42 1012.7
20260504190551 25 235 37.0 48.3 0.00 0.00 0.00 42 1012.8
20260504185552 24 231 17.7 40.2 0.00 0.00 0.00 42 1012.8
20260504185052 25 226 25.7 46.7 0.00 0.00 0.00 45 1012.9
20260504184555 25 210 29.0 46.7 0.00 0.00 0.00 41 1012.9
20260504184052 25 236 27.4 45.1 0.00 0.00 0.00 42 1012.9
20260504183552 25 221 24.1 43.5 0.00 0.00 0.00 42 1013.0
20260504183059 25 223 27.4 43.5 0.00 0.00 0.00 42 1013.1
20260504182554 24 253 22.5 41.8 0.00 0.00 0.00 43 1013.1
20260504182054 24 231 19.3 40.2 0.00 0.00 0.00 43 1013.3
20260504181558 24 226 17.7 40.2 0.00 0.00 0.00 44 1013.3
20260504181052 24 219 22.5 45.1 0.00 0.00 0.00 42 1013.4
20260504180552 24 243 29.0 45.1 0.00 0.00 0.00 44 1013.6
20260504175555 24 238 30.6 48.3 0.00 0.00 0.00 43 1013.6
20260504175052 24 245 24.1 45.1 0.00 0.00 0.00 43 1013.5
20260504174552 24 211 30.6 48.3 0.00 0.00 0.00 44 1013.6
20260504174052 24 237 30.6 48.3 0.00 0.00 0.00 42 1013.6
20260504173553 24 226 32.2 48.3 0.00 0.00 0.00 42 1013.7
20260504173052 24 237 32.2 48.3 0.00 0.00 0.00 43 1013.7
20260504172552 24 212 35.4 48.3 0.00 0.00 0.00 40 1013.8
20260504172053 24 203 25.7 48.3 0.00 0.00 0.00 42 1013.8
20260504171551 24 239 27.4 41.8 0.00 0.00 0.00 43 1013.8
20260504171055 24 210 30.6 43.5 0.00 0.00 0.00 44 1013.8
20260504170555 24 211 27.4 43.5 0.00 0.00 0.00 42 1014.0
20260504151053 22 252 27.4 38.6 0.00 0.00 0.00 57 1014.9
20260504150553 22 235 17.7 30.6 0.00 0.00 0.00 58 1014.9
20260504141056 19 240 22.5 33.8 0.00 0.00 0.00 67 1015.1
20260504140556 19 230 24.1 33.8 0.00 0.00 0.00 67 1015.1
20260504130552 17 230 16.1 22.5 0.00 0.00 0.00 76 1014.6
20260504110554 13 0 0.0 0.0 0.00 0.00 0.00 83 1013.8
20260504100558 13 0 0.0 9.7 0.00 0.00 0.00 83 1013.9
20260504081555 15 0 0.0 0.0 0.00 0.00 0.00 78 1014.3
20260504081055 15 0 0.0 0.0 0.00 0.00 0.00 78 1014.4
20260504080557 15 0 0.0 0.0 0.00 0.00 0.00 77 1014.5
20260504050554 16 170 6.4 9.7 0.00 0.00 0.00 70 1015.8
20260504050109 16 161 6.4 11.3 0.00 0.00 0.00 70 1015.7
20260504045556 16 0 0.0 11.3 0.00 0.00 0.00 70 1015.9
20260504045055 16 0 4.8 11.3 0.00 0.00 0.00 69 1015.9
20260504044600 17 161 1.6 9.7 0.00 0.00 0.00 69 1015.9
20260504044053 17 173 4.8 11.3 0.00 0.00 0.00 68 1015.9
20260504043552 17 189 0.0 12.9 0.00 0.00 0.00 68 1015.9
20260504043059 17 0 9.7 12.9 0.00 0.00 0.00 67 1016.0
20260504042552 17 179 3.2 11.3 0.00 0.00 0.00 67 1015.9
20260504042052 17 0 0.0 0.0 0.00 0.00 0.00 66 1015.9
20260504041600 17 0 0.0 0.0 0.00 0.00 0.00 66 1015.9
20260504041053 17 0 0.0 0.0 0.00 0.00 0.00 65 1015.9
20260504040555 17 0 0.0 0.0 0.00 0.00 0.00 65 1015.9
20260504035556 17 0 0.0 0.0 0.00 0.00 0.00 64 1015.9
20260504035055 17 0 0.0 11.3 0.00 0.00 0.00 64 1015.8
20260504034557 17 0 1.6 11.3 0.00 0.00 0.00 63 1015.8
20260504034057 17 177 8.0 11.3 0.00 0.00 0.00 62 1015.9
20260504033555 17 0 0.0 11.3 0.00 0.00 0.00 62 1015.9
20260504033053 17 0 6.4 11.3 0.00 0.00 0.00 61 1015.9
20260504032555 17 186 0.0 0.0 0.00 0.00 0.00 61 1015.9
20260504032058 17 0 0.0 0.0 0.00 0.00 0.00 61 1015.8
20260504031555 17 0 0.0 0.0 0.00 0.00 0.00 60 1015.9
20260504031052 18 0 0.0 0.0 0.00 0.00 0.00 60 1016.0
20260504030555 18 0 0.0 8.0 0.00 0.00 0.00 59 1015.9
20260504030055 18 0 0.0 8.0 0.00 0.00 0.00 59 1015.9
20260504025555 18 0 0.0 8.0 0.00 0.00 0.00 59 1015.9
20260504025052 18 0 0.0 0.0 0.00 0.00 0.00 58 1015.8
20260504024609 18 0 0.0 0.0 0.00 0.00 0.00 58 1015.9
20260504024053 18 0 0.0 0.0 0.00 0.00 0.00 58 1015.9
20260504023555 18 0 0.0 6.4 0.00 0.00 0.00 58 1015.9
20260504023054 18 0 0.0 6.4 0.00 0.00 0.00 57 1015.8
20260504022557 18 0 0.0 4.8 0.00 0.00 0.00 55 1015.7
20260504022055 18 0 0.0 9.7 0.00 0.00 0.00 55 1015.7
20260504021555 19 0 0.0 9.7 0.00 0.00 0.00 54 1015.6
20260504021055 19 0 1.6 9.7 0.00 0.00 0.00 53 1015.6
20260504020557 19 0 0.0 8.0 0.00 0.00 0.00 52 1015.6
20260504020057 20 0 0.0 8.0 0.00 0.00 0.00 52 1015.5
20260504015556 20 0 1.6 8.0 0.00 0.00 0.00 51 1015.5
20260504015056 20 0 0.0 6.4 0.00 0.00 0.00 50 1015.4
20260504014605 20 0 0.0 6.4 0.00 0.00 0.00 50 1015.5
20260504014055 20 0 0.0 6.4 0.00 0.00 0.00 49 1015.4
20260504013555 20 0 1.6 6.4 0.00 0.00 0.00 49 1015.4
20260504013058 20 0 0.0 0.0 0.00 0.00 0.00 49 1015.4
20260504012555 20 0 0.0 0.0 0.00 0.00 0.00 48 1015.4
20260504012054 21 0 0.0 0.0 0.00 0.00 0.00 48 1015.4
20260504011631 21 0 0.0 0.0 0.00 0.00 0.00 47 1015.4
20260504011054 21 0 0.0 0.0 0.00 0.00 0.00 46 1015.3
20260504010552 22 0 0.0 0.0 0.00 0.00 0.00 44 1015.2
20260504010104 22 0 0.0 0.0 0.00 0.00 0.00 45 1015.2
20260504005553 22 0 0.0 0.0 0.00 0.00 0.00 45 1015.0
20260504005057 22 0 0.0 0.0 0.00 0.00 0.00 46 1015.1
20260504004553 22 0 0.0 6.4 0.00 0.00 0.00 44 1015.1
20260504004055 22 0 0.0 6.4 0.00 0.00 0.00 43 1015.0
20260504003556 23 210 0.0 0.0 0.00 0.00 0.00 42 1015.1
20260504003056 23 0 0.0 0.0 0.00 0.00 0.00 41 1015.0
20260504002555 23 0 0.0 0.0 0.00 0.00 0.00 40 1014.8
20260504002055 23 0 0.0 0.0 0.00 0.00 0.00 40 1014.8
20260504001556 23 0 0.0 11.3 0.00 0.00 0.00 39 1014.9
20260504001052 23 0 0.0 11.3 0.00 0.00 0.00 38 1015.0
20260504000557 23 0 0.0 16.1 0.00 0.00 0.00 38 1015.0
20260504000137 23 0 1.6 16.1 0.00 0.00 0.00 38 1015.1
20260503235554 23 218 1.6 24.1 0.00 0.00 0.00 39 1015.1
20260503235053 23 221 8.0 24.1 0.00 0.00 0.00 38 1015.2
20260503234601 24 214 17.7 24.1 0.00 0.00 0.00 37 1015.2
20260503234058 24 198 8.0 27.4 0.00 0.00 0.00 38 1015.3
20260503233553 24 0 3.2 27.4 0.00 0.00 0.00 39 1015.3
20260503233054 24 263 14.5 27.4 0.00 0.00 0.00 38 1015.3
20260503232552 24 0 0.0 16.1 0.00 0.00 0.00 39 1015.5
20260503232055 24 0 1.6 17.7 0.00 0.00 0.00 38 1015.5
20260503231556 24 254 1.6 17.7 0.00 0.00 0.00 36 1015.6
20260503231052 24 250 0.0 17.7 0.00 0.00 0.00 38 1015.6
20260503230552 24 0 4.8 17.7 0.00 0.00 0.00 35 1015.6
20260503230056 24 0 4.8 17.7 0.00 0.00 0.00 36 1015.7
20260503225553 24 210 8.0 17.7 0.00 0.00 0.00 35 1015.6
20260503225052 24 0 8.0 17.7 0.00 0.00 0.00 36 1015.8
20260503224554 25 0 0.0 14.5 0.00 0.00 0.00 36 1015.8
20260503224055 24 0 1.6 19.3 0.00 0.00 0.00 36 1015.7
20260503223553 25 0 0.0 19.3 0.00 0.00 0.00 35 1015.8
20260503223058 25 0 4.8 19.3 0.00 0.00 0.00 34 1015.9
20260503222552 24 0 0.0 16.1 0.00 0.00 0.00 36 1015.9
20260503222052 24 0 1.6 19.3 0.00 0.00 0.00 37 1016.1
20260503221557 24 0 0.0 25.7 0.00 0.00 0.00 39 1016.1
20260503221055 25 236 12.9 25.7 0.00 0.00 0.00 37 1016.2
20260503220552 25 0 0.0 17.7 0.00 0.00 0.00 37 1016.1
20260503220057 24 0 3.2 25.7 0.00 0.00 0.00 37 1016.1
20260503215551 24 0 1.6 29.0 0.00 0.00 0.00 39 1016.3
20260503215051 24 250 17.7 29.0 0.00 0.00 0.00 37 1016.4
20260503214555 24 230 11.3 25.7 0.00 0.00 0.00 38 1016.5
20260503214052 24 212 0.0 17.7 0.00 0.00 0.00 40 1016.4
20260503213552 24 0 6.4 20.9 0.00 0.00 0.00 37 1016.4
20260503213100 24 0 9.7 20.9 0.00 0.00 0.00 40 1016.5